Temp
57 58 58 56 52 50 50 51 51 53 52 52 52 52 50 49 48 48 47 48 46 45
57 56 55 52 51 51 50 53 53 53 52 52 52 52 50 49 49 49 48 48 47 46
57 59 56 53 52 51 52 54 53 53 53 52 52 51 49 48 48 49 48 49 48 47
57 56 57 55 54 54 53 53 53 53 53 53 51 51 50 49 50 51 49 48 49 49
57 58 56 54 54 54 54 53 54 54 53 54 53 50 51 51 54 51 50 51 49 50
57 55 56 54 54 53 53 53 53 54 53 54 53 51 51 52 53 52 51 50 49 50
57 56 57 54 54 53 54 55 54 54 54 54 53 53 53 53 52 50 51 51 50 50
57 57 56 56 55 54 54 57 57 55 54 53 53 55 52 52 51 50 50 50 50 50
59 58 57 56 55 54 54 57 57 55 55 54 56 55 54 53 50 50 49 48 49 49
59 58 57 57 56 55 55 55 56 55 53 54 57 52 52 53 50 49 48 47 48 49
59 60 58 57 57 53 53 55 55 53 52 53 57 53 50 51 51 48 48 50 47 46
59 59 57 56 55 55 54 53 53 55 52 53 53 52 50 50 48 49 51 49 47 45
60 59 57 56 55 55 55 55 56 55 53 52 51 50 48 48 49 50 47 44 44 49
59 59 58 56 57 54 54 54 53 53 53 50 50 50 47 48 50 47 45 44 44 44
MSLP
1017.73 1017.83 1018.09 1018.01 1018.31 1018.92 1019.50 1019.79 1020.00 1020.30 1020.56 1020.88 1020.72 1020.82 1021.13 1021.40 1021.56 1021.91 1022.11 1022.36 1022.46 1022.52
1017.22 1017.73 1017.49 1017.71 1018.11 1018.68 1019.23 1019.66 1020.05 1020.31 1020.54 1020.77 1020.63 1020.58 1021.09 1021.43 1021.50 1021.66 1021.88 1022.26 1022.51 1022.64
1016.68 1017.10 1017.02 1017.35 1018.16 1018.54 1018.99 1019.34 1020.12 1020.22 1020.47 1020.73 1020.72 1020.56 1021.17 1021.32 1021.51 1021.80 1021.79 1022.05 1022.30 1022.47
1016.52 1016.85 1017.65 1017.46 1017.73 1018.21 1018.63 1019.38 1019.66 1020.02 1020.33 1020.57 1020.74 1020.75 1020.84 1021.04 1021.43 1021.72 1021.87 1021.95 1022.09 1022.05
1016.52 1016.96 1017.67 1017.43 1017.41 1017.89 1018.49 1019.06 1019.52 1019.81 1020.28 1020.37 1020.46 1020.68 1020.69 1020.88 1021.04 1021.54 1021.72 1021.63 1021.77 1021.74
1016.49 1016.98 1017.38 1016.98 1017.12 1017.62 1018.23 1018.99 1019.26 1019.66 1020.09 1020.32 1020.41 1020.46 1020.42 1020.45 1020.59 1021.11 1021.47 1021.49 1021.48 1021.30
1016.26 1016.45 1016.64 1016.40 1016.86 1017.60 1017.97 1018.55 1018.83 1019.39 1019.78 1020.05 1020.17 1020.19 1020.09 1020.14 1020.24 1020.77 1021.18 1021.25 1021.05 1020.98
1015.53 1016.10 1016.22 1016.33 1016.61 1017.17 1017.64 1018.07 1018.54 1018.94 1019.62 1020.01 1020.28 1020.18 1019.91 1019.84 1020.01 1020.51 1020.77 1020.77 1020.65 1020.64
1014.96 1015.73 1016.16 1016.30 1016.08 1016.32 1016.95 1017.55 1018.23 1018.49 1019.25 1019.73 1019.72 1019.57 1019.63 1019.72 1020.01 1020.24 1020.62 1020.55 1020.26 1020.31
1014.42 1015.03 1015.59 1016.09 1016.57 1016.07 1016.63 1017.30 1017.64 1018.14 1018.98 1019.28 1019.19 1019.11 1019.35 1019.50 1019.79 1020.02 1020.25 1020.40 1020.31 1020.29
1013.79 1014.54 1015.03 1015.89 1016.10 1016.35 1016.66 1017.24 1017.76 1018.07 1018.63 1018.85 1018.70 1018.73 1019.00 1019.24 1019.51 1019.71 1020.13 1020.14 1020.19 1020.28
1013.16 1013.78 1014.49 1015.45 1015.73 1015.79 1016.28 1016.76 1017.54 1017.74 1018.13 1018.44 1018.36 1018.50 1018.82 1019.08 1019.34 1019.62 1019.78 1019.93 1020.16 1020.16
1012.68 1013.20 1013.84 1014.30 1015.05 1015.37 1015.75 1016.34 1017.06 1017.47 1017.72 1017.85 1018.17 1018.51 1018.83 1019.12 1019.27 1019.54 1019.74 1019.91 1020.19 1020.17
1012.58 1012.85 1013.20 1013.89 1014.57 1014.80 1015.70 1016.41 1017.01 1017.57 1017.70 1017.79 1018.23 1018.45 1018.81 1018.93 1019.02 1019.24 1019.76 1020.00 1020.13 1019.95
Wind_Speed
10 8 8 9 6 5 5 4 5 5 5 6 6 5 4 3 3 3 3 4 3 2
8 8 8 7 6 5 5 4 6 6 6 4 6 6 5 3 2 1 1 0 1 1
8 7 7 8 7 7 6 6 6 6 5 5 4 6 5 3 2 1 1 1 2 2
5 6 6 7 7 8 7 7 7 6 6 6 5 5 5 4 3 3 3 3 4 6
5 7 7 6 7 7 8 6 7 6 5 5 5 5 5 5 4 3 5 5 3 6
6 6 7 7 7 7 7 7 6 6 6 6 6 6 6 6 5 4 5 5 4 6
9 9 9 8 9 7 7 7 6 6 6 6 6 7 6 6 4 4 5 5 5 5
8 7 9 9 9 8 7 6 6 6 5 5 5 4 6 5 4 5 6 5 5 6
10 8 7 7 10 10 8 7 7 6 6 5 5 9 10 6 5 5 5 6 5 4
11 10 8 8 8 9 8 6 6 5 5 7 6 8 9 9 4 4 5 4 5 5
10 10 8 7 8 5 6 6 4 5 5 6 5 7 8 8 5 2 1 3 3 3
11 11 10 10 8 6 6 5 5 4 6 5 4 7 8 5 3 2 1 2 3 5
10 11 10 11 11 5 5 5 4 4 5 6 5 4 5 5 3 2 1 1 4 5
10 11 12 11 8 7 6 5 5 3 3 3 5 4 6 9 4 3 3 3 3 4
Wind_Direction
186 187 184 174 160 169 169 172 170 178 168 168 158 142 146 114 123 128 103 86 86 107
187 186 176 165 153 162 159 160 171 173 165 162 160 148 153 150 143 146 78 350 99 180
191 185 173 151 168 173 171 158 167 173 171 168 159 149 163 162 161 199 346 309 269 282
187 169 175 166 173 181 158 168 170 174 182 182 160 170 168 186 162 203 247 267 256 276
175 162 176 175 164 154 165 166 175 171 187 189 171 171 174 181 182 223 256 254 244 263
172 165 185 165 152 150 150 173 166 166 190 204 202 193 200 191 187 210 232 246 249 273
195 190 185 165 158 156 157 166 166 188 204 202 202 202 200 198 193 227 246 258 257 271
183 194 177 171 159 157 160 173 177 175 204 204 213 219 214 211 214 236 265 269 274 273
177 189 193 186 164 159 173 174 173 177 206 223 237 220 210 198 223 239 240 275 298 304
179 182 185 182 187 176 180 161 166 185 209 231 230 233 224 212 203 201 229 274 313 314
178 186 178 185 198 180 144 158 170 205 218 225 233 221 228 210 196 212 263 267 270 207
180 175 170 194 186 185 153 136 183 192 196 216 245 228 228 191 180 198 232 301 208 183
179 185 184 184 195 169 155 157 167 205 203 205 238 255 248 173 145 150 214 266 238 217
193 196 193 189 184 142 125 132 127 258 246 226 237 246 165 161 156 176 178 212 251 245